Home > Products > State Listing > Ohio Data
Latest:
 RWRCLE |
  [top]

000
ASUS41 KCLE 270410
RWRCLE
OHIO REGIONAL WEATHER ROUNDUP
NATIONAL WEATHER SERVICE CLEVELAND, OH
1200 AM EDT FRI MAY 27 2016

NOTE: "FAIR" INDICATES FEW OR NO CLOUDS BELOW 12,000 FEET WITH NO
SIGNIFICANT WEATHER AND/OR OBSTRUCTIONS TO VISIBILITY.

OHZ001>008-015>018-024>027-034-035-043-044-270500-
   NORTHWEST OHIO

CITY           SKY/WX    TMP DP  RH WIND       PRES   REMARKS
DEFIANCE       MOCLDY    74  60  61 SW7       29.97R
FINDLAY        CLOUDY    72  61  68 S14       29.98R
TOLEDO EXPRESS PTCLDY    71  65  81 S6        29.95S
TOLEDO EXEC    PTCLDY    74  64  71 SW9       29.96S
LIMA           CLOUDY    69  62  78 S10       30.00R
$$

OHZ009>014-019>023-028>033-038-089-270500-
   NORTHEAST OHIO

CITY           SKY/WX    TMP DP  RH WIND       PRES   REMARKS
CLE-HOPKINS    MOCLDY    76  65  68 SW10      30.01R
CLE-LAKEFRONT  MOCLDY    77  66  68 S12       29.98R
CUY CO. ARPT   NOT AVBL
LORAIN-ELYRIA  PTCLDY    72  64  76 SW8       30.00R
ASHTABULA      CLOUDY    71  64  78 S5        30.01R
AKRON-CANTON   CLOUDY    71  64  78 SW10      30.03R
WOOSTER        CLOUDY    71  65  81 SW12      30.03R
MANSFIELD      CLOUDY    71  65  81 S12       30.02S
YOUNGSTOWN     MOCLDY    71  64  78 S7        30.03R
$$

OHZ042-051>053-060>062-070>072-077>081-270500-
  SOUTHWEST OHIO

CITY           SKY/WX    TMP DP  RH WIND       PRES   REMARKS
CINC-COVINGTON CLOUDY    66  63  90 SW7       30.02S
CINC-LUNKEN    FOG       63  63 100 CALM      30.03S VSB 1/2
HAMILTON       CLOUDY    65  63  93 CALM      30.02S
DAYTON         CLOUDY    67  62  84 S7        30.03S
WRIGHT-PAT AFB CLOUDY    67  65  91 SE5       30.02S
DAYTON GENERAL PTCLDY    65  61  87 S6        30.02S
WILMINGTON     CLOUDY    65  63  93 S6        30.03F
$$

OHZ036-037-039>041-045>050-054>059-063>069-073>076-082>088-270500-
  CENTRAL AND SOUTHEAST OHIO

CITY           SKY/WX    TMP DP  RH WIND       PRES   REMARKS
COLUMBUS       MOCLDY    71  66  84 S6        30.03S
OSU AIRPORT    NOT AVBL
BOLTON FIELD   MOCLDY    69  65  87 SW7       30.04S
RICKENBACK AFB MOCLDY    68  65  90 SW5       30.03S
NEWARK         PTCLDY    73  66  78 S6        30.04R
MARION         CLOUDY    71  63  75 S12       30.02S
LANCASTER      CLOUDY    71  65  81 S6        30.05R
ZANESVILLE     PTCLDY    72  65  78 S5        30.05R
NEW PHILLY     PTCLDY    74  65  73 S3        30.05R
$$





000
ASUS41 KCLE 270402
RWRCLE
OHIO REGIONAL WEATHER ROUNDUP
NATIONAL WEATHER SERVICE CLEVELAND, OH
1200 AM EDT FRI MAY 27 2016

NOTE: "FAIR" INDICATES FEW OR NO CLOUDS BELOW 12,000 FEET WITH NO
SIGNIFICANT WEATHER AND/OR OBSTRUCTIONS TO VISIBILITY.

OHZ001>008-015>018-024>027-034-035-043-044-270500-
   NORTHWEST OHIO

CITY           SKY/WX    TMP DP  RH WIND       PRES   REMARKS
DEFIANCE       MOCLDY    74  60  61 SW7       29.97R
FINDLAY        CLOUDY    72  61  68 S14       29.98R
TOLEDO EXPRESS PTCLDY    71  65  81 S6        29.95S
TOLEDO EXEC    PTCLDY    74  64  71 SW9       29.96S
LIMA           CLOUDY    69  62  78 S10       30.00R
$$

OHZ009>014-019>023-028>033-038-089-270500-
   NORTHEAST OHIO

CITY           SKY/WX    TMP DP  RH WIND       PRES   REMARKS
CLE-HOPKINS    MOCLDY    76  65  68 SW10      30.01R
CLE-LAKEFRONT  MOCLDY    77  66  68 S12       29.98R
CUY CO. ARPT   NOT AVBL
LORAIN-ELYRIA  PTCLDY    72  64  76 SW8       30.00R
ASHTABULA      CLOUDY    71  64  78 S5        30.01R
AKRON-CANTON   CLOUDY    71  64  78 SW10      30.03R
WOOSTER        CLOUDY    71  65  81 SW12      30.03R
MANSFIELD      CLOUDY    71  65  81 S12       30.02S
YOUNGSTOWN     MOCLDY    71  64  78 S7        30.03R
$$

OHZ042-051>053-060>062-070>072-077>081-270500-
  SOUTHWEST OHIO

CITY           SKY/WX    TMP DP  RH WIND       PRES   REMARKS
CINC-COVINGTON CLOUDY    66  63  90 SW7       30.02S
CINC-LUNKEN      N/A     63  63 100 CALM      30.02F FOG
HAMILTON       CLOUDY    65  63  93 CALM      30.02S
DAYTON         CLOUDY    67  62  84 S7        30.03S
WRIGHT-PAT AFB CLOUDY    67  65  91 SE5       30.02S
DAYTON GENERAL PTCLDY    65  61  87 S6        30.02S
WILMINGTON     CLOUDY    65  63  93 S6        30.03F
$$

OHZ036-037-039>041-045>050-054>059-063>069-073>076-082>088-270500-
  CENTRAL AND SOUTHEAST OHIO

CITY           SKY/WX    TMP DP  RH WIND       PRES   REMARKS
COLUMBUS       MOCLDY    71  66  84 S6        30.03S
OSU AIRPORT    NOT AVBL
BOLTON FIELD   NOT AVBL
RICKENBACK AFB NOT AVBL
NEWARK         PTCLDY    73  66  78 S6        30.04R
MARION         CLOUDY    71  63  75 S12       30.02S
LANCASTER      CLOUDY    71  65  81 S6        30.05R
ZANESVILLE     PTCLDY    72  65  78 S5        30.05R
NEW PHILLY     PTCLDY    74  65  73 S3        30.05R
$$





000
ASUS41 KCLE 270300
RWRCLE
OHIO REGIONAL WEATHER ROUNDUP
NATIONAL WEATHER SERVICE WILMINGTON, OH
1100 PM EDT THU MAY 26 2016

NOTE: "FAIR" INDICATES FEW OR NO CLOUDS BELOW 12,000 FEET WITH NO
SIGNIFICANT WEATHER AND/OR OBSTRUCTIONS TO VISIBILITY.

OHZ001>008-015>018-024>027-034-035-043-044-270400-
   NORTHWEST OHIO

CITY           SKY/WX    TMP DP  RH WIND       PRES   REMARKS
DEFIANCE       FAIR      75  61  61 SW7       29.96R
FINDLAY        FAIR      74  64  71 S10       29.96R
TOLEDO EXPRESS FAIR      75  65  70 SW6       29.95R
TOLEDO EXEC    FAIR      75  65  70 S6        29.96R
LIMA           FAIR      71  63  75 S10       29.99R
$$

OHZ009>014-019>023-028>033-038-089-270400-
   NORTHEAST OHIO

CITY           SKY/WX    TMP DP  RH WIND       PRES   REMARKS
CLE-HOPKINS    MOCLDY    77  65  66 S9        30.00R
CLE-LAKEFRONT  FAIR      78  65  63 S10       29.96R
CUY CO. ARPT   CLOUDY    77  68  73 S12       29.99R
LORAIN-ELYRIA  FAIR      74  64  71 S7        29.99R
ASHTABULA      FAIR      72  63  73 S7        29.99R
AKRON-CANTON   FAIR      72  65  78 S9        30.02R
WOOSTER        NOT AVBL
MANSFIELD      FAIR      73  66  78 S16G23    30.02R
YOUNGSTOWN     MOCLDY    71  63  75 S6        30.01R
$$

OHZ042-051>053-060>062-070>072-077>081-270400-
  SOUTHWEST OHIO

CITY           SKY/WX    TMP DP  RH WIND       PRES   REMARKS
CINC-COVINGTON CLOUDY    66  64  93 S7        30.02R
CINC-LUNKEN    FAIR      65  65 100 CALM      30.03R
HAMILTON       FAIR      68  63  84 SW3       30.02R
DAYTON         NOT AVBL
WRIGHT-PAT AFB FAIR      69  64  85 S6        30.02R
DAYTON GENERAL FAIR      66  62  87 S7        30.02R
WILMINGTON     FAIR      66  63  90 S7        30.04R
$$

OHZ036-037-039>041-045>050-054>059-063>069-073>076-082>088-270400-
  CENTRAL AND SOUTHEAST OHIO

CITY           SKY/WX    TMP DP  RH WIND       PRES   REMARKS
COLUMBUS       MOCLDY    72  66  81 S5        30.03R
OSU AIRPORT    FAIR      72  66  81 S7        30.03R
BOLTON FIELD   NOT AVBL
RICKENBACK AFB NOT AVBL
NEWARK         FAIR      73  66  78 S5        30.02R
MARION         FAIR      74  65  73 SW14G21   30.02R
LANCASTER      FAIR      71  65  81 S5        30.04R
ZANESVILLE     FAIR      73  65  75 S5        30.03R
NEW PHILLY     MOCLDY    74  65  73 S5        30.03R
$$





000
ASUS41 KCLE 270210
RWRCLE
OHIO REGIONAL WEATHER ROUNDUP
NATIONAL WEATHER SERVICE CLEVELAND, OH
1000 PM EDT THU MAY 26 2016

NOTE: "FAIR" INDICATES FEW OR NO CLOUDS BELOW 12,000 FEET WITH NO
SIGNIFICANT WEATHER AND/OR OBSTRUCTIONS TO VISIBILITY.

OHZ001>008-015>018-024>027-034-035-043-044-270300-
   NORTHWEST OHIO

CITY           SKY/WX    TMP DP  RH WIND       PRES   REMARKS
DEFIANCE       PTCLDY    78  60  53 SW8       29.94R
FINDLAY        MOCLDY    76  64  66 SW14      29.94R
TOLEDO EXPRESS PTCLDY    77  64  64 SW9       29.93R
TOLEDO EXEC    MOCLDY    78  65  63 S7        29.93R
LIMA           CLOUDY    74  63  68 S10       29.97R
$$

OHZ009>014-019>023-028>033-038-089-270300-
   NORTHEAST OHIO

CITY           SKY/WX    TMP DP  RH WIND       PRES   REMARKS
CLE-HOPKINS    MOCLDY    78  65  63 S12       29.97R
CLE-LAKEFRONT  CLOUDY    79  65  62 S9        29.94R
CUY CO. ARPT   CLOUDY    79  68  69 S9        29.96R
LORAIN-ELYRIA  CLOUDY    75  64  68 S13       29.95R
ASHTABULA      CLEAR     73  63  70 S6        29.98S
AKRON-CANTON   PTCLDY    73  65  75 S9        30.00R
WOOSTER        PTCLDY    72  65  78 S9        30.00R
MANSFIELD      MOCLDY    73  66  78 S13       29.98S
YOUNGSTOWN     MOCLDY    72  62  71 S5        30.00S
$$

OHZ042-051>053-060>062-070>072-077>081-270300-
  SOUTHWEST OHIO

CITY           SKY/WX    TMP DP  RH WIND       PRES   REMARKS
CINC-COVINGTON CLOUDY    67  65  93 SW7       30.01R
CINC-LUNKEN    MOCLDY    65  65 100 S3        30.02R
HAMILTON       CLOUDY    69  63  81 SW5       30.01R
DAYTON         CLOUDY    69  62  78 SW7       30.01R
WRIGHT-PAT AFB CLOUDY    70  64  81 S9        30.00R
DAYTON GENERAL CLOUDY    67  62  84 S7        30.00R
WILMINGTON     MOCLDY    67  65  93 SW6       30.01R
$$

OHZ036-037-039>041-045>050-054>059-063>069-073>076-082>088-270300-
  CENTRAL AND SOUTHEAST OHIO

CITY           SKY/WX    TMP DP  RH WIND       PRES   REMARKS
COLUMBUS       CLOUDY    74  66  76 S6        29.98R
OSU AIRPORT    CLOUDY    74  66  76 S9        29.98R
BOLTON FIELD   PTCLDY    72  67  83 S7        30.00R
RICKENBACK AFB PTCLDY    71  66  82 S5        29.98R
NEWARK         PTCLDY    74  66  76 S7        29.99R
MARION         CLOUDY    75  66  73 S13       29.98R
LANCASTER      CLOUDY    73  66  78 S7        30.00R
ZANESVILLE     PTCLDY    74  66  76 S7        30.00S
NEW PHILLY     MOCLDY    75  65  70 S5        30.01R
$$





000
ASUS41 KCLE 270210
RWRCLE
OHIO REGIONAL WEATHER ROUNDUP
NATIONAL WEATHER SERVICE WILMINGTON, OH
1000 PM EDT THU MAY 26 2016

NOTE: "FAIR" INDICATES FEW OR NO CLOUDS BELOW 12,000 FEET WITH NO
SIGNIFICANT WEATHER AND/OR OBSTRUCTIONS TO VISIBILITY.

OHZ001>008-015>018-024>027-034-035-043-044-270300-
   NORTHWEST OHIO

CITY           SKY/WX    TMP DP  RH WIND       PRES   REMARKS
DEFIANCE       FAIR      78  60  53 SW8       29.94R
FINDLAY        FAIR      76  64  66 SW14      29.94R
TOLEDO EXPRESS FAIR      77  64  64 SW9       29.93R
TOLEDO EXEC    FAIR      78  65  63 S7        29.93R
LIMA           FAIR      74  63  68 S10       29.97R
$$

OHZ009>014-019>023-028>033-038-089-270300-
   NORTHEAST OHIO

CITY           SKY/WX    TMP DP  RH WIND       PRES   REMARKS
CLE-HOPKINS    MOCLDY    78  65  63 S12       29.97R
CLE-LAKEFRONT  FAIR      79  65  62 S9        29.94R
CUY CO. ARPT   CLOUDY    79  68  69 S9        29.96R
LORAIN-ELYRIA  FAIR      75  64  68 S13       29.95R
ASHTABULA      FAIR      73  63  70 S6        29.98S
AKRON-CANTON   FAIR      73  65  75 S9        30.00R
WOOSTER        FAIR      72  65  78 S9        30.00R
MANSFIELD      FAIR      73  66  78 S13       29.98S
YOUNGSTOWN     MOCLDY    72  62  71 S5        30.00S
$$

OHZ042-051>053-060>062-070>072-077>081-270300-
  SOUTHWEST OHIO

CITY           SKY/WX    TMP DP  RH WIND       PRES   REMARKS
CINC-COVINGTON CLOUDY    67  65  93 SW7       30.01R
CINC-LUNKEN    FAIR      65  65 100 S3        30.02R
HAMILTON       FAIR      69  63  81 SW5       30.01R
DAYTON         FAIR      69  62  78 SW7       30.01R
WRIGHT-PAT AFB FAIR      70  64  81 S9        30.00R
DAYTON GENERAL FAIR      67  62  84 S7        30.00R
WILMINGTON     FAIR      67  65  93 SW6       30.01R
$$

OHZ036-037-039>041-045>050-054>059-063>069-073>076-082>088-270300-
  CENTRAL AND SOUTHEAST OHIO

CITY           SKY/WX    TMP DP  RH WIND       PRES   REMARKS
COLUMBUS       CLOUDY    74  66  76 S6        29.98R
OSU AIRPORT    FAIR      74  66  76 S9        29.98R
BOLTON FIELD   FAIR      72  67  83 S7        30.00R
RICKENBACK AFB FAIR      71  66  82 S5        29.98R
NEWARK         FAIR      74  66  76 S7        29.99R
MARION         FAIR      75  66  73 S13       29.98R
LANCASTER      FAIR      73  66  78 S7        30.00R
ZANESVILLE     FAIR      74  66  76 S7        30.00S
NEW PHILLY     MOCLDY    75  65  70 S5        30.01R
$$





000
ASUS41 KCLE 270100
RWRCLE
OHIO REGIONAL WEATHER ROUNDUP
NATIONAL WEATHER SERVICE WILMINGTON, OH
900 PM EDT THU MAY 26 2016

NOTE: "FAIR" INDICATES FEW OR NO CLOUDS BELOW 12,000 FEET WITH NO
SIGNIFICANT WEATHER AND/OR OBSTRUCTIONS TO VISIBILITY.

OHZ001>008-015>018-024>027-034-035-043-044-270200-
   NORTHWEST OHIO

CITY           SKY/WX    TMP DP  RH WIND       PRES   REMARKS
DEFIANCE       FAIR      79  63  57 S8        29.90R
FINDLAY        FAIR      78  63  59 S13       29.90F
TOLEDO EXPRESS FAIR      79  64  60 S6        29.88F
TOLEDO EXEC    FAIR      79  65  62 S9        29.90S
LIMA           FAIR      76  65  68 S14       29.93S
$$

OHZ009>014-019>023-028>033-038-089-270200-
   NORTHEAST OHIO

CITY           SKY/WX    TMP DP  RH WIND       PRES   REMARKS
CLE-HOPKINS    MOCLDY    80  64  58 S10       29.96S
CLE-LAKEFRONT  FAIR      81  63  54 S12       29.92S
CUY CO. ARPT   CLOUDY    79  66  65 S12       29.95S
LORAIN-ELYRIA  FAIR      76  64  66 SW8       29.94F
ASHTABULA      FAIR      75  63  66 SE5       29.98R
AKRON-CANTON   FAIR      75  64  68 SW7       29.99S
WOOSTER        NOT AVBL
MANSFIELD      FAIR      75  65  70 S13       29.98S
YOUNGSTOWN     MOCLDY    74  62  66 S5        30.00R
$$

OHZ042-051>053-060>062-070>072-077>081-270200-
  SOUTHWEST OHIO

CITY           SKY/WX    TMP DP  RH WIND       PRES   REMARKS
CINC-COVINGTON CLOUDY    68  65  90 S10       29.98S
CINC-LUNKEN    FAIR      66  66 100 S3        29.98S
HAMILTON       FAIR      71  65  81 S6        29.97S
DAYTON         NOT AVBL
WRIGHT-PAT AFB NOT AVBL
DAYTON GENERAL FAIR      70  62  76 S10       29.96S
WILMINGTON     FAIR      68  64  87 S7        29.98F
$$

OHZ036-037-039>041-045>050-054>059-063>069-073>076-082>088-270200-
  CENTRAL AND SOUTHEAST OHIO

CITY           SKY/WX    TMP DP  RH WIND       PRES   REMARKS
COLUMBUS       CLOUDY    75  66  73 S8        29.97F
OSU AIRPORT    FAIR      76  66  71 S13       29.96F
BOLTON FIELD   NOT AVBL
RICKENBACK AFB NOT AVBL
NEWARK         MOCLDY    76  66  71 SE7       29.98S
MARION         MOCLDY    76  66  71 S12       29.95F
LANCASTER      FAIR      74  66  76 S7        29.99F
ZANESVILLE     FAIR      74  65  73 S6        30.00F
NEW PHILLY     MOCLDY    77  65  66 VRB3      30.00F
$$





000
ASUS41 KCLE 262312
RWRCLE
OHIO REGIONAL WEATHER ROUNDUP
NATIONAL WEATHER SERVICE WILMINGTON, OH
700 PM EDT THU MAY 26 2016

NOTE: "FAIR" INDICATES FEW OR NO CLOUDS BELOW 12,000 FEET WITH NO
SIGNIFICANT WEATHER AND/OR OBSTRUCTIONS TO VISIBILITY.

OHZ001>008-015>018-024>027-034-035-043-044-270000-
   NORTHWEST OHIO

CITY           SKY/WX    TMP DP  RH WIND       PRES   REMARKS
DEFIANCE       FAIR      84  64  50 S12       29.91S
FINDLAY        FAIR      81  63  54 SW16      29.93S
TOLEDO EXPRESS FAIR      83  64  52 SW9       29.90S
TOLEDO EXEC    FAIR      83  64  52 SW12      29.91S
LIMA           FAIR      79  65  62 S14       29.94F
$$

OHZ009>014-019>023-028>033-038-089-270000-
   NORTHEAST OHIO

CITY           SKY/WX    TMP DP  RH WIND       PRES   REMARKS
CLE-HOPKINS    PTSUNNY   83  62  49 S13       29.96S
CLE-LAKEFRONT  FAIR      83  63  50 S9        29.92S
CUY CO. ARPT   PTSUNNY   82  64  54 S10       29.95F
LORAIN-ELYRIA  FAIR      82  63  52 SW13      29.94S
ASHTABULA      FAIR      80  62  54 S9        29.97S
AKRON-CANTON   PTSUNNY   79  64  60 SW14      29.98F
WOOSTER        FAIR      80  65  59 S12       29.98S
MANSFIELD      FAIR      78  66  66 S15G23    29.98S
YOUNGSTOWN     PTSUNNY   79  62  56 S9        29.98F
$$

OHZ042-051>053-060>062-070>072-077>081-270000-
  SOUTHWEST OHIO

CITY           SKY/WX    TMP DP  RH WIND       PRES   REMARKS
CINC-COVINGTON CLOUDY    70  66  87 S10       30.00F
CINC-LUNKEN    FAIR      70  68  93 S6        29.99F
HAMILTON       FAIR      74  65  73 VRB5      29.99F
DAYTON         CLOUDY    76  66  71 S12       29.98F
WRIGHT-PAT AFB PTSUNNY   77  69  76 S10       29.97S
DAYTON GENERAL FAIR      73  60  63 SW13      29.98F
WILMINGTON     FAIR      74  67  78 SW12      29.99R
$$

OHZ036-037-039>041-045>050-054>059-063>069-073>076-082>088-270000-
  CENTRAL AND SOUTHEAST OHIO

CITY           SKY/WX    TMP DP  RH WIND       PRES   REMARKS
COLUMBUS       CLOUDY    78  66  66 S12       29.98S
OSU AIRPORT    FAIR      79  66  64 S12       29.97F
BOLTON FIELD   SUNNY     77  68  73 S15       29.99S
RICKENBACK AFB FAIR      77  66  69 S10       29.98S
NEWARK         FAIR      79  65  62 S13       30.00R
MARION         FAIR      80  65  59 S16       29.96F
LANCASTER      CLOUDY    77  65  66 S13       30.01R
ZANESVILLE     FAIR      80  66  62 S15       30.00F
NEW PHILLY     CLOUDY    82  64  54 VRB5      30.00R
$$





000
ASUS41 KCLE 262200
RWRCLE
OHIO REGIONAL WEATHER ROUNDUP
NATIONAL WEATHER SERVICE WILMINGTON, OH
600 PM EDT THU MAY 26 2016

NOTE: "FAIR" INDICATES FEW OR NO CLOUDS BELOW 12,000 FEET WITH NO
SIGNIFICANT WEATHER AND/OR OBSTRUCTIONS TO VISIBILITY.

OHZ001>008-015>018-024>027-034-035-043-044-262300-
   NORTHWEST OHIO

CITY           SKY/WX    TMP DP  RH WIND       PRES   REMARKS
DEFIANCE       FAIR      85  61  44 SW9       29.91F
FINDLAY        FAIR      83  64  52 S10       29.93S
TOLEDO EXPRESS FAIR      85  63  47 SW10      29.90F
TOLEDO EXEC    FAIR      85  63  47 SW12      29.91F
LIMA           FAIR      80  66  62 S13       29.95S
$$

OHZ009>014-019>023-028>033-038-089-262300-
   NORTHEAST OHIO

CITY           SKY/WX    TMP DP  RH WIND       PRES   REMARKS
CLE-HOPKINS    PTSUNNY   84  63  49 SW12G18   29.96F
CLE-LAKEFRONT  FAIR      83  63  50 S13       29.92F
CUY CO. ARPT   PTSUNNY   84  66  54 S12       29.96F
LORAIN-ELYRIA  FAIR      83  62  49 SW13      29.94F
ASHTABULA      FAIR      82  62  50 S13       29.97F
AKRON-CANTON   PTSUNNY   80  63  55 SW8       29.99F
WOOSTER        NOT AVBL
MANSFIELD      FAIR      80  66  62 S14       29.98F
YOUNGSTOWN     PTSUNNY   79  62  56 S7        29.99F
$$

OHZ042-051>053-060>062-070>072-077>081-262300-
  SOUTHWEST OHIO

CITY           SKY/WX    TMP DP  RH WIND       PRES   REMARKS
CINC-COVINGTON CLOUDY    70  67  90 S8        30.02R
CINC-LUNKEN    FAIR      69  67  93 S7        30.01R
HAMILTON       FAIR      75  66  73 S8        30.01R
DAYTON         NOT AVBL
WRIGHT-PAT AFB NOT AVBL
DAYTON GENERAL FAIR      75  66  73 S12       29.99R
WILMINGTON     LGT RAIN  74  68  81 S16G24    29.98S
$$

OHZ036-037-039>041-045>050-054>059-063>069-073>076-082>088-262300-
  CENTRAL AND SOUTHEAST OHIO

CITY           SKY/WX    TMP DP  RH WIND       PRES   REMARKS
COLUMBUS       CLOUDY    78  65  63 S8        29.98F
OSU AIRPORT    CLOUDY    80  66  62 S13G22    29.98S
BOLTON FIELD   NOT AVBL
RICKENBACK AFB NOT AVBL
NEWARK         FAIR      80  66  62 S12       29.99F
MARION         PTSUNNY   81  66  60 S16G23    29.97S
LANCASTER      FAIR      80  66  62 S13G21    30.00F
ZANESVILLE     CLOUDY    79  65  62 S14       30.01F
NEW PHILLY     FAIR      83  63  50 S8G17     29.99F
$$





000
ASUS41 KCLE 262010
RWRCLE
OHIO REGIONAL WEATHER ROUNDUP
NATIONAL WEATHER SERVICE WILMINGTON, OH
400 PM EDT THU MAY 26 2016

NOTE: "FAIR" INDICATES FEW OR NO CLOUDS BELOW 12,000 FEET WITH NO
SIGNIFICANT WEATHER AND/OR OBSTRUCTIONS TO VISIBILITY.

OHZ001>008-015>018-024>027-034-035-043-044-262100-
   NORTHWEST OHIO

CITY           SKY/WX    TMP DP  RH WIND       PRES   REMARKS
DEFIANCE       FAIR      84  63  49 SW10      29.92F
FINDLAY        PTSUNNY   82  64  54 SW15      29.94F
TOLEDO EXPRESS FAIR      85  63  47 SW7       29.91F
TOLEDO EXEC    FAIR      85  62  46 SW14      29.92F
LIMA           FAIR      80  67  64 S9        29.96F
$$

OHZ009>014-019>023-028>033-038-089-262100-
   NORTHEAST OHIO

CITY           SKY/WX    TMP DP  RH WIND       PRES   REMARKS
CLE-HOPKINS    PTSUNNY   82  63  52 S12       29.99F
CLE-LAKEFRONT  FAIR      84  62  47 S17G23    29.96F
CUY CO. ARPT   PTSUNNY   86  66  51 SW17      29.99F
LORAIN-ELYRIA  FAIR      82  62  50 SW16      29.98F
ASHTABULA      FAIR      83  63  50 SW10G21   30.01F
AKRON-CANTON   PTSUNNY   79  63  57 S9        30.02F
WOOSTER        FAIR      81  63  54 SW15      30.01F
MANSFIELD      PTSUNNY   81  63  54 S15       30.01F
YOUNGSTOWN     PTSUNNY   81  62  52 SW15G21   30.03F
$$

OHZ042-051>053-060>062-070>072-077>081-262100-
  SOUTHWEST OHIO

CITY           SKY/WX    TMP DP  RH WIND       PRES   REMARKS
CINC-COVINGTON TSTM      68  65  90 S8        30.02F
CINC-LUNKEN    TSTM      71  65  81 W18G30    30.04R
HAMILTON       TSTM      73  69  87 VRB7      30.00F FOG
DAYTON         PTSUNNY   76  66  71 S13       29.99F
WRIGHT-PAT AFB CLOUDY    78  68  71 S12       29.99F
DAYTON GENERAL CLOUDY    77  65  66 S13       30.00F
WILMINGTON     FAIR      77  66  68 S14       30.02F
$$

OHZ036-037-039>041-045>050-054>059-063>069-073>076-082>088-262100-
  CENTRAL AND SOUTHEAST OHIO

CITY           SKY/WX    TMP DP  RH WIND       PRES   REMARKS
COLUMBUS       CLOUDY    79  65  62 S13       30.01F
OSU AIRPORT    PTSUNNY   80  66  62 S14       30.00F
BOLTON FIELD   CLOUDY    81  66  61 S13G18    30.02F
RICKENBACK AFB PTSUNNY   79  66  63 S12       30.01F
NEWARK         PTSUNNY   80  65  59 S12       30.02F
MARION         FAIR      81  65  58 S13       29.99F
LANCASTER      PTSUNNY   79  65  62 S14       30.03F
ZANESVILLE     PTSUNNY   82  65  56 S13       30.04F
NEW PHILLY     FAIR      82  63  52 S9G18     30.03F
$$





000
ASUS41 KCLE 262000
RWRCLE
OHIO REGIONAL WEATHER ROUNDUP
NATIONAL WEATHER SERVICE WILMINGTON, OH
400 PM EDT THU MAY 26 2016

NOTE: "FAIR" INDICATES FEW OR NO CLOUDS BELOW 12,000 FEET WITH NO
SIGNIFICANT WEATHER AND/OR OBSTRUCTIONS TO VISIBILITY.

OHZ001>008-015>018-024>027-034-035-043-044-262100-
   NORTHWEST OHIO

CITY           SKY/WX    TMP DP  RH WIND       PRES   REMARKS
DEFIANCE       FAIR      84  63  49 SW10      29.92F
FINDLAY        PTSUNNY   82  64  54 SW15      29.94F
TOLEDO EXPRESS FAIR      85  63  47 SW7       29.91F
TOLEDO EXEC    FAIR      85  62  46 SW14      29.92F
LIMA           FAIR      80  67  64 S9        29.96F
$$

OHZ009>014-019>023-028>033-038-089-262100-
   NORTHEAST OHIO

CITY           SKY/WX    TMP DP  RH WIND       PRES   REMARKS
CLE-HOPKINS    PTSUNNY   82  63  52 S12       29.99F
CLE-LAKEFRONT  FAIR      84  62  47 S17G23    29.96F
CUY CO. ARPT   PTSUNNY   86  66  51 SW17      29.99F
LORAIN-ELYRIA  FAIR      82  62  50 SW16      29.98F
ASHTABULA      FAIR      83  63  50 SW10G21   30.01F
AKRON-CANTON   PTSUNNY   79  63  57 S9        30.02F
WOOSTER        NOT AVBL
MANSFIELD      PTSUNNY   81  63  54 S15       30.01F
YOUNGSTOWN     PTSUNNY   81  62  52 SW15G21   30.03F
$$

OHZ042-051>053-060>062-070>072-077>081-262100-
  SOUTHWEST OHIO

CITY           SKY/WX    TMP DP  RH WIND       PRES   REMARKS
CINC-COVINGTON TSTM      68  65  90 S8        30.02F
CINC-LUNKEN    CLOUDY    78  70  76 S7        30.01F THUNDER
HAMILTON       TSTM      73  69  87 VRB7      30.00F FOG
DAYTON         NOT AVBL
WRIGHT-PAT AFB NOT AVBL
DAYTON GENERAL CLOUDY    77  65  66 S13       30.00F
WILMINGTON     FAIR      77  66  68 S14       30.02F
$$

OHZ036-037-039>041-045>050-054>059-063>069-073>076-082>088-262100-
  CENTRAL AND SOUTHEAST OHIO

CITY           SKY/WX    TMP DP  RH WIND       PRES   REMARKS
COLUMBUS       CLOUDY    79  65  62 S13       30.01F
OSU AIRPORT    PTSUNNY   80  66  62 S14       30.00F
BOLTON FIELD   NOT AVBL
RICKENBACK AFB NOT AVBL
NEWARK         PTSUNNY   80  65  59 S12       30.02F
MARION         FAIR      81  65  58 S13       29.99F
LANCASTER      PTSUNNY   79  65  62 S14       30.03F
ZANESVILLE     PTSUNNY   82  65  56 S13       30.04F
NEW PHILLY     FAIR      82  63  52 S9G18     30.03F
$$





000
ASUS41 KCLE 261902
RWRCLE
OHIO REGIONAL WEATHER ROUNDUP
NATIONAL WEATHER SERVICE CLEVELAND, OH
300 PM EDT THU MAY 26 2016

NOTE: "FAIR" INDICATES FEW OR NO CLOUDS BELOW 12,000 FEET WITH NO
SIGNIFICANT WEATHER AND/OR OBSTRUCTIONS TO VISIBILITY.

OHZ001>008-015>018-024>027-034-035-043-044-262000-
   NORTHWEST OHIO

CITY           SKY/WX    TMP DP  RH WIND       PRES   REMARKS
DEFIANCE       CLOUDY    83  63  50 SW10G20   29.95F
FINDLAY        CLOUDY    82  61  48 SW14      29.96F
TOLEDO EXPRESS PTSUNNY   83  62  49 SW9       29.94F
TOLEDO EXEC    MOSUNNY   85  62  46 SW12      29.95F
LIMA           PTSUNNY   80  67  64 SW12      29.99F
$$

OHZ009>014-019>023-028>033-038-089-262000-
   NORTHEAST OHIO

CITY           SKY/WX    TMP DP  RH WIND       PRES   REMARKS
CLE-HOPKINS    PTSUNNY   83  62  49 S14G26    30.02S
CLE-LAKEFRONT  MOSUNNY   83  63  50 S14G22    29.98F
CUY CO. ARPT   PTSUNNY   86  66  51 SW10      30.01F
LORAIN-ELYRIA  PTSUNNY   82  62  50 SW16G23   30.00S
ASHTABULA      MOSUNNY   82  61  48 SW15G22   30.02S
AKRON-CANTON   CLOUDY    79  64  60 S17       30.05F
WOOSTER        LGT RAIN  81  63  54 SW16G24   30.04F
MANSFIELD      PTSUNNY   79  63  57 SW14      30.03F
YOUNGSTOWN     CLOUDY    81  62  52 SW13G21   30.04S
$$

OHZ042-051>053-060>062-070>072-077>081-262000-
  SOUTHWEST OHIO

CITY           SKY/WX    TMP DP  RH WIND       PRES   REMARKS
CINC-COVINGTON CLOUDY    79  68  69 S8        30.03F
CINC-LUNKEN    CLOUDY    78  69  73 S10       30.03F
HAMILTON       CLOUDY    82  69  64 SW9       30.03F
DAYTON         CLOUDY    76  65  68 S9        30.03F
WRIGHT-PAT AFB NOT AVBL
DAYTON GENERAL CLOUDY    78  65  63 S9        30.03F
WILMINGTON     PTSUNNY   80  67  64 SW13      30.05F
$$

OHZ036-037-039>041-045>050-054>059-063>069-073>076-082>088-262000-
  CENTRAL AND SOUTHEAST OHIO

CITY           SKY/WX    TMP DP  RH WIND       PRES   REMARKS
COLUMBUS       CLOUDY    77  65  66 S13       30.03F
OSU AIRPORT    CLOUDY    78  65  63 SW12      30.03F
BOLTON FIELD   CLOUDY    79  66  65 S10       30.04F
RICKENBACK AFB NOT AVBL
NEWARK         PTSUNNY   82  64  54 SW13      30.03F
MARION         PTSUNNY   82  65  56 SW9G20    30.01F
LANCASTER      CLOUDY    79  65  62 S9G16     30.06F
ZANESVILLE     PTSUNNY   82  66  58 S13       30.06F
NEW PHILLY     CLOUDY    80  63  55 SW8       30.06F
$$





000
ASUS41 KCLE 261900
RWRCLE
OHIO REGIONAL WEATHER ROUNDUP
NATIONAL WEATHER SERVICE WILMINGTON, OH
300 PM EDT THU MAY 26 2016

NOTE: "FAIR" INDICATES FEW OR NO CLOUDS BELOW 12,000 FEET WITH NO
SIGNIFICANT WEATHER AND/OR OBSTRUCTIONS TO VISIBILITY.

OHZ001>008-015>018-024>027-034-035-043-044-262000-
   NORTHWEST OHIO

CITY           SKY/WX    TMP DP  RH WIND       PRES   REMARKS
DEFIANCE       CLOUDY    83  63  50 SW10G20   29.95F
FINDLAY        PTSUNNY   82  61  48 SW14      29.96F
TOLEDO EXPRESS PTSUNNY   83  62  49 SW9       29.94F
TOLEDO EXEC    FAIR      85  62  46 SW12      29.95F
LIMA           FAIR      80  67  64 SW12      29.99F
$$

OHZ009>014-019>023-028>033-038-089-262000-
   NORTHEAST OHIO

CITY           SKY/WX    TMP DP  RH WIND       PRES   REMARKS
CLE-HOPKINS    PTSUNNY   83  62  49 S14G26    30.02S
CLE-LAKEFRONT  FAIR      83  63  50 S14G22    29.98F
CUY CO. ARPT   PTSUNNY   86  66  51 SW10      30.01F
LORAIN-ELYRIA  PTSUNNY   82  62  50 SW16G23   30.00S
ASHTABULA      FAIR      82  61  48 SW15G22   30.02S
AKRON-CANTON   PTSUNNY   79  64  60 S17       30.05F
WOOSTER        NOT AVBL
MANSFIELD      PTSUNNY   79  63  57 SW14      30.03F
YOUNGSTOWN     CLOUDY    81  62  52 SW13G21   30.04S
$$

OHZ042-051>053-060>062-070>072-077>081-262000-
  SOUTHWEST OHIO

CITY           SKY/WX    TMP DP  RH WIND       PRES   REMARKS
CINC-COVINGTON PTSUNNY   79  68  69 S8        30.03F
CINC-LUNKEN    PTSUNNY   78  69  73 S10       30.03F
HAMILTON       FAIR      82  69  64 SW9       30.03F
DAYTON         NOT AVBL
WRIGHT-PAT AFB NOT AVBL
DAYTON GENERAL CLOUDY    78  65  63 S9        30.03F
WILMINGTON     PTSUNNY   80  67  64 SW13      30.05F
$$

OHZ036-037-039>041-045>050-054>059-063>069-073>076-082>088-262000-
  CENTRAL AND SOUTHEAST OHIO

CITY           SKY/WX    TMP DP  RH WIND       PRES   REMARKS
COLUMBUS       CLOUDY    77  65  66 S13       30.03F
OSU AIRPORT    CLOUDY    78  65  63 SW12      30.03F
BOLTON FIELD   CLOUDY    79  66  65 S10       30.04F
RICKENBACK AFB NOT AVBL
NEWARK         FAIR      82  64  54 SW13      30.03F
MARION         PTSUNNY   82  65  56 SW9G20    30.01F
LANCASTER      CLOUDY    79  65  62 S9G16     30.06F
ZANESVILLE     PTSUNNY   82  66  58 S13       30.06F
NEW PHILLY     FAIR      80  63  55 SW8       30.06F
$$





    US Dept of Commerce
    National Oceanic and Atmospheric Administration
    National Weather Service
    1325 East West Highway
    Silver Spring, MD 20910
    Page Author: NWS Internet Services Team
Disclaimer
Information Quality
Credits
Glossary
Privacy Policy
Freedom of Information Act (FOIA)
About Us
Career Opportunities